THY9HW LTFM-LTBS

Flight info

Callsign THY9HW
Flight time 0h 52m
Altitude 38000
Route RATVU1E/36 RATVU UT35 NUMTI DCT KULAR/N0428F370 UT44 ATSAL
Aircraft A320/M-SDE3FGHIRWY/LB1

Departure

Time 2026-05-06 18:09
Airport İstanbul Airport (LTFM)

Arrival

Time 2026-05-06 19:01
Airport Dalaman International Airport (LTBS)
Time Latitude Longitude Altitude Speed Heading
2026-05-06 17:47 41.25828 28.75017 334 ft 0 kts 251°
2026-05-06 18:00 41.25834 28.75039 330 ft 4 kts 252°
2026-05-06 18:00 41.25841 28.75074 329 ft 4 kts 256°
2026-05-06 18:00 41.25847 28.75109 329 ft 4 kts 265°
2026-05-06 18:00 41.25846 28.75142 331 ft 4 kts 302°
2026-05-06 18:01 41.25838 28.75154 331 ft 0 kts 341°
2026-05-06 18:05 41.25845 28.75151 334 ft 3 kts 341°
2026-05-06 18:05 41.25874 28.75138 333 ft 6 kts 342°
2026-05-06 18:05 41.25925 28.75147 334 ft 9 kts 41°
2026-05-06 18:06 41.25937 28.75238 330 ft 12 kts 89°
2026-05-06 18:06 41.25942 28.75358 334 ft 13 kts 73°
2026-05-06 18:06 41.26026 28.75398 333 ft 15 kts 359°
2026-05-06 18:06 41.26142 28.75394 333 ft 18 kts 359°
2026-05-06 18:07 41.26222 28.75399 333 ft 9 kts 17°
2026-05-06 18:07 41.26248 28.75480 334 ft 12 kts 88°
2026-05-06 18:07 41.26250 28.75599 334 ft 13 kts 88°
2026-05-06 18:07 41.26255 28.75664 330 ft 5 kts 60°
2026-05-06 18:08 41.26275 28.75668 333 ft 0 kts 360°
2026-05-06 18:08 41.26276 28.75668 333 ft 1 kts 360°
2026-05-06 18:08 41.26423 28.75667 330 ft 56 kts 359°
2026-05-06 18:08 41.27043 28.75659 334 ft 119 kts 359°
2026-05-06 18:09 41.28038 28.75641 413 ft 159 kts
2026-05-06 18:09 41.29141 28.75624 1072 ft 158 kts
2026-05-06 18:09 41.30180 28.75997 1750 ft 157 kts 39°
2026-05-06 18:09 41.30993 28.77001 2292 ft 166 kts 37°
2026-05-06 18:10 41.32022 28.77905 2604 ft 188 kts 29°
2026-05-06 18:10 41.33231 28.78810 2923 ft 211 kts 27°
2026-05-06 18:10 41.34596 28.79802 3303 ft 236 kts 27°
2026-05-06 18:10 41.36100 28.80902 3916 ft 254 kts 27°
2026-05-06 18:11 41.37589 28.82242 4825 ft 265 kts 45°
2026-05-06 18:11 41.38415 28.84465 5717 ft 277 kts 77°
2026-05-06 18:11 41.38608 28.87036 6704 ft 281 kts 85°
2026-05-06 18:11 41.38579 28.89662 7621 ft 288 kts 97°
2026-05-06 18:12 41.37793 28.92136 8487 ft 298 kts 125°
2026-05-06 18:12 41.36224 28.93967 9355 ft 306 kts 152°
2026-05-06 18:12 41.34175 28.94743 10177 ft 311 kts 176°
2026-05-06 18:12 41.31941 28.94855 10529 ft 334 kts 180°
2026-05-06 18:13 41.29544 28.94896 10855 ft 353 kts 180°
2026-05-06 18:13 41.27062 28.94906 11502 ft 360 kts 181°
2026-05-06 18:13 41.24542 28.94886 12248 ft 364 kts 182°
2026-05-06 18:13 41.21998 28.94730 13007 ft 368 kts 184°
2026-05-06 18:14 41.19437 28.94478 13772 ft 371 kts 185°
2026-05-06 18:14 41.16854 28.94185 14445 ft 375 kts 186°
2026-05-06 18:14 41.14238 28.93886 15102 ft 379 kts 186°
2026-05-06 18:14 41.11604 28.93601 15732 ft 383 kts 185°
2026-05-06 18:15 41.08923 28.93571 16355 ft 388 kts 173°
2026-05-06 18:15 41.06283 28.94396 16991 ft 392 kts 164°
2026-05-06 18:15 41.03642 28.95386 17640 ft 396 kts 164°
2026-05-06 18:15 41.00988 28.96404 18278 ft 400 kts 164°
2026-05-06 18:16 40.98291 28.97446 18852 ft 405 kts 164°
2026-05-06 18:16 40.95579 28.98497 19426 ft 408 kts 164°
2026-05-06 18:16 40.92848 28.99551 20027 ft 412 kts 164°
2026-05-06 18:16 40.90070 29.00611 20617 ft 416 kts 164°
2026-05-06 18:17 40.87271 29.01670 21183 ft 420 kts 164°
2026-05-06 18:17 40.84409 29.02749 21745 ft 424 kts 165°
2026-05-06 18:17 40.81489 29.03330 22279 ft 427 kts 181°
2026-05-06 18:17 40.78534 29.02967 22820 ft 428 kts 189°
2026-05-06 18:18 40.75568 29.02430 23354 ft 432 kts 190°
2026-05-06 18:18 40.72574 29.01870 23836 ft 436 kts 190°
2026-05-06 18:18 40.69567 29.01296 24271 ft 440 kts 190°
2026-05-06 18:18 40.66524 29.00718 24690 ft 443 kts 190°
2026-05-06 18:19 40.63455 29.00139 25121 ft 447 kts 190°
2026-05-06 18:19 40.60408 28.99569 25541 ft 450 kts 190°
2026-05-06 18:19 40.57260 28.98984 25959 ft 453 kts 190°
2026-05-06 18:19 40.54132 28.98409 26357 ft 456 kts 190°
2026-05-06 18:20 40.50967 28.97830 26745 ft 459 kts 191°
2026-05-06 18:20 40.47795 28.97251 27154 ft 462 kts 191°
2026-05-06 18:20 40.44601 28.96665 27552 ft 465 kts 191°
2026-05-06 18:20 40.41382 28.96074 27937 ft 468 kts 191°
2026-05-06 18:21 40.38153 28.95479 28321 ft 471 kts 191°
2026-05-06 18:21 40.34893 28.94874 28706 ft 474 kts 191°
2026-05-06 18:21 40.31617 28.94271 29093 ft 477 kts 191°
2026-05-06 18:21 40.28316 28.93668 29465 ft 480 kts 191°
2026-05-06 18:22 40.25005 28.93066 29830 ft 483 kts 191°
2026-05-06 18:22 40.21668 28.92459 30177 ft 486 kts 191°
2026-05-06 18:22 40.18305 28.91845 30486 ft 489 kts 191°
2026-05-06 18:22 40.14928 28.91228 30802 ft 491 kts 191°
2026-05-06 18:23 40.11536 28.90606 31100 ft 493 kts 191°
2026-05-06 18:23 40.08131 28.89984 31437 ft 494 kts 192°
2026-05-06 18:23 40.04722 28.89366 31876 ft 493 kts 192°
2026-05-06 18:23 40.01338 28.88753 32297 ft 493 kts 192°
2026-05-06 18:24 39.97939 28.88137 32707 ft 493 kts 192°
2026-05-06 18:24 39.94539 28.87523 33115 ft 492 kts 192°
2026-05-06 18:24 39.91149 28.86911 33550 ft 492 kts 192°
2026-05-06 18:24 39.87760 28.86296 33989 ft 492 kts 192°
2026-05-06 18:25 39.84370 28.85677 34377 ft 491 kts 192°
2026-05-06 18:25 39.80988 28.85059 34776 ft 490 kts 192°
2026-05-06 18:25 39.77613 28.84447 35185 ft 489 kts 192°
2026-05-06 18:25 39.74247 28.83844 35577 ft 488 kts 192°
2026-05-06 18:26 39.70897 28.83250 35967 ft 486 kts 192°
2026-05-06 18:26 39.67551 28.82653 36355 ft 484 kts 192°
2026-05-06 18:26 39.64228 28.82059 36743 ft 482 kts 192°
2026-05-06 18:26 39.60911 28.81461 37078 ft 481 kts 192°
2026-05-06 18:27 39.57593 28.80862 37448 ft 480 kts 192°
2026-05-06 18:27 39.54298 28.80268 37809 ft 478 kts 192°
2026-05-06 18:27 39.50999 28.79675 38051 ft 478 kts 192°
2026-05-06 18:27 39.47707 28.79085 38090 ft 478 kts 192°
2026-05-06 18:28 39.42240 28.78106 38092 ft 477 kts 192°
2026-05-06 18:28 39.35657 28.76938 38091 ft 477 kts 192°
2026-05-06 18:29 39.29079 28.75765 38096 ft 478 kts 192°
2026-05-06 18:29 39.22494 28.74592 38097 ft 478 kts 192°
2026-05-06 18:30 39.15907 28.73420 38091 ft 478 kts 192°
2026-05-06 18:30 39.09711 28.72320 38097 ft 478 kts 192°
2026-05-06 18:31 39.03268 28.71185 38096 ft 478 kts 192°
2026-05-06 18:31 38.96681 28.70017 38102 ft 478 kts 192°
2026-05-06 18:32 38.90104 28.68856 38106 ft 477 kts 192°
2026-05-06 18:32 38.83516 28.67711 38106 ft 477 kts 192°
2026-05-06 18:33 38.76956 28.66566 38104 ft 476 kts 192°
2026-05-06 18:33 38.70384 28.65406 38099 ft 476 kts 192°
2026-05-06 18:34 38.63840 28.64256 37701 ft 473 kts 192°
2026-05-06 18:34 38.60566 28.63684 37069 ft 473 kts 192°
2026-05-06 18:34 38.57280 28.63384 36549 ft 476 kts 182°
2026-05-06 18:35 38.53963 28.63618 36046 ft 477 kts 180°
2026-05-06 18:35 38.50662 28.63898 35571 ft 475 kts 180°
2026-05-06 18:35 38.47369 28.64179 35101 ft 473 kts 180°
2026-05-06 18:35 38.44067 28.64458 34163 ft 483 kts 180°
2026-05-06 18:36 38.40674 28.64736 33243 ft 490 kts 180°
2026-05-06 18:36 38.37229 28.65019 32606 ft 489 kts 180°
2026-05-06 18:36 38.33886 28.65296 32071 ft 486 kts 180°
2026-05-06 18:36 38.30521 28.65575 31552 ft 483 kts 180°
2026-05-06 18:37 38.27176 28.65850 30828 ft 484 kts 180°
2026-05-06 18:37 38.23807 28.66125 30134 ft 485 kts 180°
2026-05-06 18:37 38.20449 28.66399 29483 ft 482 kts 180°
2026-05-06 18:37 38.17119 28.66672 28902 ft 477 kts 180°
2026-05-06 18:38 38.13830 28.66942 28148 ft 470 kts 180°
2026-05-06 18:38 38.10573 28.67212 27547 ft 467 kts 180°
2026-05-06 18:38 38.07354 28.67480 27068 ft 461 kts 180°
2026-05-06 18:38 38.04122 28.67749 26523 ft 457 kts 179°
2026-05-06 18:39 38.01001 28.68003 26038 ft 453 kts 179°
2026-05-06 18:39 37.97868 28.68257 25554 ft 449 kts 179°
2026-05-06 18:39 37.94763 28.68506 25097 ft 444 kts 179°
2026-05-06 18:40 37.88661 28.68998 23609 ft 430 kts 179°
2026-05-06 18:40 37.85699 28.69237 22820 ft 428 kts 179°
2026-05-06 18:40 37.82742 28.69475 22432 ft 423 kts 179°
2026-05-06 18:40 37.79814 28.69715 21996 ft 419 kts 178°
2026-05-06 18:41 37.76920 28.69951 21546 ft 416 kts 179°
2026-05-06 18:41 37.74042 28.70184 21088 ft 412 kts 179°
2026-05-06 18:41 37.71190 28.70413 20641 ft 409 kts 179°
2026-05-06 18:41 37.68360 28.70628 20185 ft 406 kts 179°
2026-05-06 18:42 37.65555 28.70826 19736 ft 402 kts 179°
2026-05-06 18:42 37.62781 28.71016 19171 ft 397 kts 179°
2026-05-06 18:42 37.60023 28.71206 18699 ft 395 kts 179°
2026-05-06 18:42 37.57291 28.71396 18236 ft 392 kts 179°
2026-05-06 18:43 37.54571 28.71584 17728 ft 389 kts 179°
2026-05-06 18:43 37.51882 28.71770 17218 ft 386 kts 179°
2026-05-06 18:43 37.49217 28.71951 16729 ft 383 kts 179°
2026-05-06 18:43 37.46564 28.72083 16329 ft 379 kts 180°
2026-05-06 18:44 37.43932 28.72170 16058 ft 379 kts 181°
2026-05-06 18:44 37.41300 28.72235 15783 ft 377 kts 181°
2026-05-06 18:44 37.38680 28.72295 15509 ft 376 kts 181°
2026-05-06 18:44 37.36076 28.72361 15243 ft 374 kts 181°
2026-05-06 18:45 37.33482 28.72436 14977 ft 371 kts 180°
2026-05-06 18:45 37.30930 28.72515 14710 ft 362 kts 180°
2026-05-06 18:45 37.28429 28.72597 14444 ft 358 kts 180°
2026-05-06 18:45 37.25941 28.72680 14185 ft 356 kts 180°
2026-05-06 18:46 37.23472 28.72764 13923 ft 354 kts 180°
2026-05-06 18:46 37.21014 28.72846 13634 ft 353 kts 180°
2026-05-06 18:46 37.18567 28.72925 13337 ft 351 kts 180°
2026-05-06 18:46 37.16145 28.73001 13056 ft 345 kts 180°
2026-05-06 18:47 37.13766 28.73075 12766 ft 339 kts 180°
2026-05-06 18:47 37.11429 28.73149 12483 ft 333 kts 180°
2026-05-06 18:47 37.09133 28.73221 12203 ft 328 kts 180°
2026-05-06 18:47 37.06868 28.73292 11929 ft 323 kts 180°
2026-05-06 18:48 37.04636 28.73267 11650 ft 319 kts 183°
2026-05-06 18:48 37.02426 28.73130 11369 ft 316 kts 184°
2026-05-06 18:48 37.00238 28.72944 11101 ft 314 kts 185°
2026-05-06 18:48 36.98064 28.72743 10832 ft 312 kts 185°
2026-05-06 18:49 36.95906 28.72550 10567 ft 311 kts 185°
2026-05-06 18:49 36.93761 28.72371 10304 ft 309 kts 184°
2026-05-06 18:49 36.91622 28.72202 10039 ft 307 kts 184°
2026-05-06 18:49 36.89501 28.71944 9758 ft 305 kts 192°
2026-05-06 18:50 36.87446 28.71324 9470 ft 303 kts 195°
2026-05-06 18:50 36.85401 28.70686 9178 ft 301 kts 195°
2026-05-06 18:50 36.83376 28.70052 8896 ft 300 kts 195°
2026-05-06 18:50 36.81363 28.69422 8614 ft 298 kts 195°
2026-05-06 18:51 36.79357 28.68796 8334 ft 296 kts 195°
2026-05-06 18:51 36.77366 28.68176 8047 ft 289 kts 195°
2026-05-06 18:51 36.75438 28.67576 7772 ft 284 kts 194°
2026-05-06 18:51 36.73568 28.66994 7506 ft 276 kts 194°
2026-05-06 18:52 36.71719 28.66417 7241 ft 271 kts 195°
2026-05-06 18:52 36.69926 28.65855 6962 ft 260 kts 195°
2026-05-06 18:52 36.68180 28.65308 6697 ft 258 kts 195°
2026-05-06 18:52 36.66449 28.64736 6426 ft 256 kts 196°
2026-05-06 18:53 36.64739 28.64152 6136 ft 254 kts 196°
2026-05-06 18:53 36.63043 28.63571 5863 ft 252 kts 196°
2026-05-06 18:53 36.61358 28.62997 5582 ft 250 kts 195°
2026-05-06 18:53 36.59686 28.62430 5303 ft 248 kts 195°
2026-05-06 18:54 36.58031 28.61867 5031 ft 245 kts 195°
2026-05-06 18:54 36.56392 28.61314 4750 ft 243 kts 193°
2026-05-06 18:54 36.54756 28.61278 4470 ft 231 kts 163°
2026-05-06 18:54 36.53392 28.62193 4193 ft 221 kts 134°
2026-05-06 18:55 36.52572 28.63758 3918 ft 216 kts 105°
2026-05-06 18:55 36.52169 28.65552 3651 ft 216 kts 103°
2026-05-06 18:55 36.51773 28.67354 3385 ft 216 kts 103°
2026-05-06 18:55 36.51376 28.69155 3117 ft 215 kts 103°
2026-05-06 18:56 36.51205 28.70964 2853 ft 208 kts 74°
2026-05-06 18:56 36.51906 28.72414 2793 ft 193 kts 34°
2026-05-06 18:56 36.53094 28.73066 2802 ft 187 kts 13°
2026-05-06 18:56 36.54353 28.73485 2843 ft 187 kts 13°
2026-05-06 18:57 36.55607 28.73906 2803 ft 187 kts 13°
2026-05-06 18:57 36.56864 28.74331 2664 ft 183 kts 14°
2026-05-06 18:57 36.58045 28.74733 2470 ft 170 kts 13°
2026-05-06 18:57 36.59179 28.75118 2252 ft 168 kts 14°
2026-05-06 18:58 36.60291 28.75495 2029 ft 158 kts 14°
2026-05-06 18:58 36.61309 28.75841 1829 ft 147 kts 15°
2026-05-06 18:58 36.62282 28.76172 1635 ft 143 kts 15°
2026-05-06 18:58 36.63238 28.76497 1444 ft 142 kts 15°
2026-05-06 18:59 36.64187 28.76819 1258 ft 141 kts 16°
2026-05-06 18:59 36.65134 28.77142 1068 ft 141 kts 16°
2026-05-06 18:59 36.66084 28.77465 876 ft 141 kts 17°
2026-05-06 18:59 36.67026 28.77787 698 ft 140 kts 17°
2026-05-06 19:00 36.67966 28.78108 499 ft 140 kts 18°
2026-05-06 19:00 36.68902 28.78426 305 ft 140 kts 17°
2026-05-06 19:00 36.69847 28.78750 100 ft 139 kts 16°
2026-05-06 19:00 36.70454 28.78958 38 ft 130 kts 17°
2026-05-06 19:01 36.71368 28.79273 29 ft 71 kts 15°
2026-05-06 19:01 36.71701 28.79379 28 ft 33 kts 15°
2026-05-06 19:01 36.71898 28.79442 28 ft 22 kts 12°
2026-05-06 19:01 36.72034 28.79424 27 ft 17 kts 341°
2026-05-06 19:02 36.72132 28.79386 27 ft 9 kts 344°
2026-05-06 19:02 36.72164 28.79335 28 ft 8 kts 240°
2026-05-06 19:02 36.72099 28.79306 27 ft 12 kts 196°
2026-05-06 19:02 36.72011 28.79275 29 ft 14 kts 195°
2026-05-06 19:03 36.71922 28.79245 30 ft 12 kts 195°
2026-05-06 19:03 36.71876 28.79174 29 ft 12 kts 274°
2026-05-06 19:03 36.71892 28.79084 28 ft 11 kts 282°
2026-05-06 19:03 36.71859 28.79012 28 ft 11 kts 206°
2026-05-06 19:04 36.71797 28.78990 28 ft 7 kts 195°
2026-05-06 19:04 36.71740 28.78971 27 ft 8 kts 197°
2026-05-06 19:04 36.71706 28.78951 26 ft 3 kts 217°
2026-05-06 19:04 36.71701 28.78923 29 ft 4 kts 278°
2026-05-06 19:05 36.71708 28.78890 25 ft 5 kts 285°
2026-05-06 19:05 36.71714 28.78866 26 ft 3 kts 285°
2026-05-06 19:05 36.71714 28.78862 25 ft 0 kts 285°